Location: Blandford
(50.8667°N, 2.1667°W)
Time: 10:36:29
(UTC+00:00)

Cosmos 1076 Rocket - Pass Details

Date: 09 April 2020
Orbit: 590 x 612 km, 82.5° (Epoch: 25 May)

Event Time Altitude Azimuth Distance (km) Brightness Sun altitude
Rises 21:14:43 0° 345° (NNW) 2,850 7.9 -20.1°
Reaches altitude 10° 21:16:58 10° 340° (NNW) 1,946 7.0 -20.3°
Maximum altitude 21:21:07 49° 266° (W) 783 4.3 -20.8°
Enters shadow 21:23:11 26° 205° (SSW) 1,185 4.8 -21.0°
